Retour au catalogue

STARLINK-33945

ActifCommunicationsSSO
NORAD 64154·PAYLOAD·🇺🇸 United States

Lancé May 27, 2025 depuis Vandenberg Space Force Base

Loading…

Prochains Passages (prochaines 24 heures)

TLE

FraisSource: CelesTrak SupGP

Époque: Sep 15, 2026, 03:55 UTC

1 64154C 25112J   26258.16368056  .00017328  00000+0  53781-3 0  2584
2 64154  97.2840 312.9769 0001475  83.1946 345.7527 15.33436218    17

Suivez STARLINK-33945 en temps réel avec AllMySat

Download on the App Store